カタログに戻る

QIANFAN-179

運用中通信PO
NORAD 69396·PAYLOAD·🇨🇳 China

打ち上げ Jun 4, 2026 から Taiyuan Satellite Launch Center

Loading…

次のパス (今後24時間)

TLE

最新Source: Space-Track

元期: Sep 14, 2026, 21:22 UTC

1 69396U 26124Q   26257.89036887  .00000134  00000-0  18885-3 0  9990
2 69396  89.0045 352.4995 0001849  99.8389 260.2971 13.51028988 14193

AllMySatでQIANFAN-179をリアルタイム追跡

Download on the App Store